Time,TemperatureF,DewpointF,PressureIn,WindDirection,WindDirectionDegrees,WindSpeedMPH,WindSpeedGustMPH,Humidity,HourlyPrecipIn,Conditions,Clouds,dailyrainin,SoftwareType,DateUTC
2013-10-05 00:05:00,76.5,68.7,29.39,SSE,165,7.0,17.0,77,0.00,,,0.00,Wunderground v.1.15,2013-10-05 05:05:00,
2013-10-05 00:10:00,76.5,69.1,29.39,SSE,162,6.0,9.0,78,0.00,,,0.00,Wunderground v.1.15,2013-10-05 05:10:00,
2013-10-05 00:16:00,76.5,69.1,29.40,South,170,5.0,9.0,78,0.00,,,0.00,Wunderground v.1.15,2013-10-05 05:16:00,
2013-10-05 00:21:00,76.5,69.1,29.40,SSE,161,3.0,5.0,78,0.00,,,0.00,Wunderground v.1.15,2013-10-05 05:21:00,
2013-10-05 00:26:00,76.5,69.1,29.40,SSE,155,3.0,6.0,78,0.00,,,0.00,Wunderground v.1.15,2013-10-05 05:26:00,
2013-10-05 00:31:00,76.4,69.0,29.40,SE,135,4.0,6.0,78,0.00,,,0.00,Wunderground v.1.15,2013-10-05 05:31:00,
2013-10-05 00:37:00,76.3,69.3,29.40,SSE,148,5.0,11.0,79,0.00,,,0.00,Wunderground v.1.15,2013-10-05 05:37:00,
2013-10-05 00:42:00,76.4,69.0,29.40,South,179,6.0,9.0,78,0.00,,,0.00,Wunderground v.1.15,2013-10-05 05:42:00,
2013-10-05 00:48:00,76.0,69.4,29.40,SSE,163,5.0,9.0,80,0.00,,,0.00,Wunderground v.1.15,2013-10-05 05:48:00,
2013-10-05 00:53:00,75.8,69.2,29.40,South,176,5.0,10.0,80,0.00,,,0.00,Wunderground v.1.15,2013-10-05 05:53:00,
2013-10-05 00:58:00,-16.4,-20.7,29.40,SSE,156,5.0,10.0,80,0.00,,,0.00,Wunderground v.1.15,2013-10-05 05:58:00,
2013-10-05 01:04:00,75.6,69.4,29.40,South,178,6.0,10.0,81,0.00,,,0.00,Wunderground v.1.15,2013-10-05 06:04:00,
2013-10-05 01:09:00,75.5,69.3,29.40,SSE,160,4.0,5.0,81,0.00,,,0.00,Wunderground v.1.15,2013-10-05 06:09:00,
2013-10-05 01:14:00,75.5,69.3,29.40,SSE,163,4.0,7.0,81,0.00,,,0.00,Wunderground v.1.15,2013-10-05 06:14:00,
2013-10-05 01:20:00,75.4,69.2,29.40,SSE,163,4.0,6.0,81,0.00,,,0.00,Wunderground v.1.15,2013-10-05 06:20:00,
2013-10-05 01:26:00,75.3,69.1,29.40,South,179,5.0,10.0,81,0.00,,,0.00,Wunderground v.1.15,2013-10-05 06:26:00,
2013-10-05 01:31:00,75.3,68.7,29.40,SSE,165,4.0,4.0,80,0.00,,,0.00,Wunderground v.1.15,2013-10-05 06:31:00,
2013-10-05 01:36:00,75.2,69.3,29.40,SSE,161,3.0,8.0,82,0.00,,,0.00,Wunderground v.1.15,2013-10-05 06:36:00,
2013-10-05 01:42:00,75.0,69.1,29.40,SSE,161,2.0,2.0,82,0.00,,,0.00,Wunderground v.1.15,2013-10-05 06:42:00,
2013-10-05 01:47:00,75.0,69.1,29.40,SSE,150,2.0,9.0,82,0.00,,,0.00,Wunderground v.1.15,2013-10-05 06:47:00,
2013-10-05 01:52:00,74.9,69.0,29.40,SSE,165,3.0,3.0,82,0.00,,,0.00,Wunderground v.1.15,2013-10-05 06:52:00,
2013-10-05 01:58:00,74.8,-99.9,29.40,South,182,3.0,7.0,255,0.00,,,0.00,Wunderground v.1.15,2013-10-05 06:58:00,
2013-10-05 02:03:00,74.6,69.1,29.40,SSE,150,2.0,5.0,83,0.00,,,0.00,Wunderground v.1.15,2013-10-05 07:03:00,
2013-10-05 02:08:00,74.4,68.9,29.40,SSE,159,2.0,7.0,83,0.00,,,0.00,Wunderground v.1.15,2013-10-05 07:08:00,
2013-10-05 02:14:00,74.2,69.1,29.40,SSE,152,3.0,8.0,84,0.00,,,0.00,Wunderground v.1.15,2013-10-05 07:14:00,
2013-10-05 02:19:00,74.1,69.0,29.39,SSE,161,3.0,3.0,84,0.00,,,0.00,Wunderground v.1.15,2013-10-05 07:19:00,
2013-10-05 02:24:00,74.0,68.9,29.39,SE,135,2.0,10.0,84,0.00,,,0.00,Wunderground v.1.15,2013-10-05 07:24:00,
2013-10-05 02:30:00,73.9,69.1,29.39,South,169,3.0,8.0,85,0.00,,,0.00,Wunderground v.1.15,2013-10-05 07:30:00,
2013-10-05 02:35:00,73.9,69.1,29.39,SSE,168,2.0,8.0,85,0.00,,,0.00,Wunderground v.1.15,2013-10-05 07:35:00,
2013-10-05 02:41:00,73.9,68.8,29.38,South,171,2.0,5.0,84,0.00,,,0.00,Wunderground v.1.15,2013-10-05 07:41:00,
2013-10-05 02:46:00,73.7,68.9,29.38,SSE,167,3.0,8.0,85,0.00,,,0.00,Wunderground v.1.15,2013-10-05 07:46:00,
2013-10-05 02:53:00,73.5,68.7,29.37,SSE,166,3.0,3.0,85,0.00,,,0.00,Wunderground v.1.15,2013-10-05 07:53:00,
2013-10-05 02:59:00,73.4,69.0,29.37,South,169,3.0,3.0,86,0.00,,,0.00,Wunderground v.1.15,2013-10-05 07:59:00,
2013-10-05 03:06:00,73.3,68.9,29.37,SSE,165,2.0,7.0,86,0.00,,,0.00,Wunderground v.1.15,2013-10-05 08:06:00,
2013-10-05 03:12:00,73.1,68.7,29.37,SSE,150,2.0,6.0,86,0.00,,,0.00,Wunderground v.1.15,2013-10-05 08:12:00,
2013-10-05 03:17:00,73.1,68.7,29.37,SSE,150,2.0,6.0,86,0.00,,,0.00,Wunderground v.1.15,2013-10-05 08:17:00,
2013-10-05 03:23:00,73.0,68.6,29.36,SSE,153,2.0,7.0,86,0.00,,,0.00,Wunderground v.1.15,2013-10-05 08:23:00,
2013-10-05 03:28:00,73.0,68.9,29.36,SSE,161,4.0,9.0,87,0.00,,,0.00,Wunderground v.1.15,2013-10-05 08:28:00,
2013-10-05 03:33:00,72.9,68.8,29.36,SSE,157,4.0,5.0,87,0.00,,,0.00,Wunderground v.1.15,2013-10-05 08:33:00,
2013-10-05 03:39:00,72.9,68.8,29.36,SSE,162,4.0,5.0,87,0.00,,,0.00,Wunderground v.1.15,2013-10-05 08:39:00,
2013-10-05 03:44:00,73.0,68.9,29.36,South,169,4.0,6.0,87,0.00,,,0.00,Wunderground v.1.15,2013-10-05 08:44:00,
2013-10-05 03:49:00,73.2,68.8,29.36,South,175,4.0,4.0,86,0.00,,,0.00,Wunderground v.1.15,2013-10-05 08:49:00,
2013-10-05 03:55:00,73.1,68.7,29.36,SE,141,2.0,6.0,86,0.00,,,0.00,Wunderground v.1.15,2013-10-05 08:55:00,
2013-10-05 04:00:00,73.1,68.7,29.36,SSE,159,2.0,4.0,86,0.00,,,0.00,Wunderground v.1.15,2013-10-05 09:00:00,
2013-10-05 04:06:00,73.1,-99.9,29.36,SSE,167,2.0,8.0,255,0.00,,,0.00,Wunderground v.1.15,2013-10-05 09:06:00,
2013-10-05 04:11:00,73.0,68.6,29.36,SSE,157,2.0,5.0,86,0.00,,,0.00,Wunderground v.1.15,2013-10-05 09:11:00,
2013-10-05 04:16:00,73.0,68.6,29.37,SSE,160,3.0,8.0,86,0.00,,,0.00,Wunderground v.1.15,2013-10-05 09:16:00,
2013-10-05 04:22:00,73.1,68.7,29.37,SSE,162,3.0,8.0,86,0.00,,,0.00,Wunderground v.1.15,2013-10-05 09:22:00,
2013-10-05 04:27:00,73.1,68.7,29.36,SSE,150,2.0,8.0,86,0.00,,,0.00,Wunderground v.1.15,2013-10-05 09:27:00,
2013-10-05 04:32:00,73.1,68.7,29.36,SSE,165,2.0,4.0,86,0.00,,,0.00,Wunderground v.1.15,2013-10-05 09:32:00,
2013-10-05 04:37:00,73.0,68.6,29.36,SSE,159,1.0,7.0,86,0.00,,,0.00,Wunderground v.1.15,2013-10-05 09:37:00,
2013-10-05 04:43:00,73.0,68.6,29.36,SSE,150,2.0,7.0,86,0.00,,,0.00,Wunderground v.1.15,2013-10-05 09:43:00,
2013-10-05 04:48:00,73.0,68.6,29.37,SSE,167,3.0,6.0,86,0.00,,,0.00,Wunderground v.1.15,2013-10-05 09:48:00,
2013-10-05 04:54:00,73.0,68.6,29.36,SSE,161,2.0,6.0,86,0.00,,,0.00,Wunderground v.1.15,2013-10-05 09:54:00,
2013-10-05 04:59:00,73.0,68.6,29.36,South,189,2.0,2.0,86,0.00,,,0.00,Wunderground v.1.15,2013-10-05 09:59:00,
2013-10-05 05:06:00,73.0,68.6,29.37,SSE,168,2.0,6.0,86,0.00,,,0.00,Wunderground v.1.15,2013-10-05 10:06:00,
2013-10-05 05:11:00,72.9,68.5,29.36,South,172,1.0,2.0,86,0.00,,,0.00,Wunderground v.1.15,2013-10-05 10:11:00,
2013-10-05 05:17:00,73.2,68.8,29.37,SSE,164,1.0,4.0,86,0.00,,,0.00,Wunderground v.1.15,2013-10-05 10:17:00,
2013-10-05 05:22:00,73.0,68.2,29.37,SSE,162,1.0,6.0,85,0.00,,,0.00,Wunderground v.1.15,2013-10-05 10:22:00,
2013-10-05 05:27:00,72.8,68.4,29.37,South,173,1.0,6.0,86,0.00,,,0.00,Wunderground v.1.15,2013-10-05 10:27:00,
2013-10-05 05:32:00,72.8,68.4,29.37,South,186,1.0,4.0,86,0.00,,,0.00,Wunderground v.1.15,2013-10-05 10:32:00,
2013-10-05 05:38:00,72.8,68.4,29.37,SSE,167,1.0,6.0,86,0.00,,,0.00,Wunderground v.1.15,2013-10-05 10:38:00,
2013-10-05 05:43:00,72.7,68.6,29.37,South,169,2.0,4.0,87,0.00,,,0.00,Wunderground v.1.15,2013-10-05 10:43:00,
2013-10-05 05:49:00,72.6,68.5,29.37,SSE,155,2.0,7.0,87,0.00,,,0.00,Wunderground v.1.15,2013-10-05 10:49:00,
2013-10-05 05:55:00,72.5,68.4,29.38,South,186,2.0,7.0,87,0.00,,,0.00,Wunderground v.1.15,2013-10-05 10:55:00,
2013-10-05 06:00:00,72.5,68.4,29.38,South,180,2.0,3.0,87,0.00,,,0.00,Wunderground v.1.15,2013-10-05 11:00:00,
2013-10-05 06:06:00,72.4,68.3,29.38,South,169,2.0,3.0,87,0.00,,,0.00,Wunderground v.1.15,2013-10-05 11:06:00,
2013-10-05 06:11:00,72.4,68.3,29.38,SSE,158,2.0,7.0,87,0.00,,,0.00,Wunderground v.1.15,2013-10-05 11:11:00,
2013-10-05 06:16:00,72.3,68.2,29.38,South,182,1.0,7.0,87,0.00,,,0.00,Wunderground v.1.15,2013-10-05 11:16:00,
2013-10-05 06:21:00,72.2,68.4,29.38,SSE,162,1.0,6.0,88,0.00,,,0.00,Wunderground v.1.15,2013-10-05 11:21:00,
2013-10-05 06:27:00,72.2,68.4,29.39,South,185,1.0,6.0,88,0.00,,,0.00,Wunderground v.1.15,2013-10-05 11:27:00,
2013-10-05 06:33:00,72.1,68.3,29.39,South,190,1.0,1.0,88,0.00,,,0.00,Wunderground v.1.15,2013-10-05 11:33:00,
2013-10-05 06:39:00,72.0,68.2,29.38,South,179,1.0,1.0,88,0.00,,,0.00,Wunderground v.1.15,2013-10-05 11:39:00,
2013-10-05 06:44:00,72.0,68.2,29.39,South,184,0.0,3.0,88,0.00,,,0.00,Wunderground v.1.15,2013-10-05 11:44:00,
2013-10-05 06:49:00,71.9,68.2,29.39,SSW,196,1.0,1.0,88,0.00,,,0.00,Wunderground v.1.15,2013-10-05 11:49:00,
2013-10-05 06:56:00,71.9,68.2,29.39,South,171,1.0,5.0,88,0.00,,,0.00,Wunderground v.1.15,2013-10-05 11:56:00,
2013-10-05 07:01:00,72.1,68.7,29.38,South,171,1.0,1.0,89,0.00,,,0.00,Wunderground v.1.15,2013-10-05 12:01:00,
2013-10-05 07:07:00,71.8,68.4,29.38,SSW,203,1.0,5.0,89,0.00,,,0.00,Wunderground v.1.15,2013-10-05 12:07:00,
2013-10-05 07:13:00,71.7,68.3,29.38,South,187,1.0,1.0,89,0.00,,,0.00,Wunderground v.1.15,2013-10-05 12:13:00,
2013-10-05 07:18:00,71.6,68.2,29.39,South,180,0.0,0.0,89,0.00,,,0.00,Wunderground v.1.15,2013-10-05 12:18:00,
2013-10-05 07:23:00,71.5,68.1,29.39,SSW,192,0.0,1.0,89,0.00,,,0.00,Wunderground v.1.15,2013-10-05 12:23:00,
2013-10-05 07:28:00,71.6,68.2,29.40,South,178,1.0,1.0,89,0.00,,,0.00,Wunderground v.1.15,2013-10-05 12:28:00,
2013-10-05 07:34:00,71.6,68.2,29.40,SW,230,1.0,1.0,89,0.00,,,0.00,Wunderground v.1.15,2013-10-05 12:34:00,
2013-10-05 07:41:00,71.7,68.3,29.40,SW,224,1.0,1.0,89,0.00,,,0.00,Wunderground v.1.15,2013-10-05 12:41:00,
2013-10-05 07:46:00,71.6,68.2,29.40,SW,232,1.0,1.0,89,0.00,,,0.00,Wunderground v.1.15,2013-10-05 12:46:00,
2013-10-05 07:52:00,71.7,68.3,29.40,SSW,196,1.0,2.0,89,0.00,,,0.00,Wunderground v.1.15,2013-10-05 12:52:00,
2013-10-05 07:59:00,71.9,68.5,29.39,WSW,249,0.0,1.0,89,0.00,,,0.00,Wunderground v.1.15,2013-10-05 12:59:00,
2013-10-05 08:04:00,71.9,68.2,29.39,West,274,0.0,1.0,88,0.00,,,0.00,Wunderground v.1.15,2013-10-05 13:04:00,
2013-10-05 08:09:00,71.7,67.3,29.39,South,188,0.0,8.0,86,0.00,,,0.00,Wunderground v.1.15,2013-10-05 13:09:00,
2013-10-05 08:15:00,71.6,66.8,29.40,SW,215,1.0,8.0,85,0.00,,,0.00,Wunderground v.1.15,2013-10-05 13:15:00,
2013-10-05 08:20:00,71.7,66.3,29.40,SW,233,1.0,2.0,83,0.00,,,0.00,Wunderground v.1.15,2013-10-05 13:20:00,
2013-10-05 08:25:00,71.8,65.7,29.40,SW,229,1.0,4.0,81,0.00,,,0.00,Wunderground v.1.15,2013-10-05 13:25:00,
2013-10-05 08:31:00,71.7,65.9,29.40,SW,226,1.0,3.0,82,0.00,,,0.00,Wunderground v.1.15,2013-10-05 13:31:00,
2013-10-05 08:36:00,71.7,65.6,29.41,SSW,204,1.0,3.0,81,0.00,,,0.00,Wunderground v.1.15,2013-10-05 13:36:00,
2013-10-05 08:41:00,71.7,65.9,29.41,SW,235,0.0,0.0,82,0.00,,,0.00,Wunderground v.1.15,2013-10-05 13:41:00,
2013-10-05 08:46:00,71.4,65.6,29.40,West,269,0.0,1.0,82,0.00,,,0.00,Wunderground v.1.15,2013-10-05 13:46:00,
2013-10-05 08:52:00,71.3,65.5,29.40,SW,227,1.0,1.0,82,0.00,,,0.00,Wunderground v.1.15,2013-10-05 13:52:00,
2013-10-05 08:57:00,71.2,65.1,29.41,SW,216,0.0,1.0,81,0.00,,,0.00,Wunderground v.1.15,2013-10-05 13:57:00,
2013-10-05 09:04:00,71.0,-99.9,29.41,SSW,207,2.0,6.0,255,0.00,,,0.00,Wunderground v.1.15,2013-10-05 14:04:00,
2013-10-05 09:10:00,70.7,63.5,29.41,SW,221,3.0,4.0,78,0.00,,,0.00,Wunderground v.1.15,2013-10-05 14:10:00,
2013-10-05 09:15:00,70.6,63.8,29.41,SW,217,2.0,5.0,79,0.00,,,0.00,Wunderground v.1.15,2013-10-05 14:15:00,
2013-10-05 09:21:00,70.7,63.9,29.41,SSW,202,1.0,1.0,79,0.00,,,0.00,Wunderground v.1.15,2013-10-05 14:21:00,
2013-10-05 09:26:00,70.9,64.1,29.41,South,169,0.0,5.0,79,0.00,,,0.00,Wunderground v.1.15,2013-10-05 14:26:00,
2013-10-05 09:31:00,71.4,64.5,29.41,SW,225,1.0,1.0,79,0.00,,,0.00,Wunderground v.1.15,2013-10-05 14:31:00,
2013-10-05 09:37:00,70.7,63.9,29.40,SSW,211,1.0,4.0,79,0.00,,,0.00,Wunderground v.1.15,2013-10-05 14:37:00,
2013-10-05 09:42:00,71.2,64.0,29.40,SSW,200,0.0,0.0,78,0.00,,,0.00,Wunderground v.1.15,2013-10-05 14:42:00,
2013-10-05 09:47:00,71.3,-99.9,29.40,SSW,208,0.0,0.0,255,0.00,,,0.00,Wunderground v.1.15,2013-10-05 14:47:00,
2013-10-05 09:53:00,70.9,63.7,29.40,SSW,192,0.0,0.0,78,0.00,,,0.00,Wunderground v.1.15,2013-10-05 14:53:00,
2013-10-05 09:58:00,70.9,64.4,29.41,SW,227,1.0,10.0,80,0.00,,,0.00,Wunderground v.1.15,2013-10-05 14:58:00,
2013-10-05 10:04:00,70.7,64.2,29.41,South,189,3.0,10.0,80,0.00,,,0.00,Wunderground v.1.15,2013-10-05 15:04:00,
2013-10-05 10:09:00,70.6,63.8,29.42,SSW,213,4.0,4.0,79,0.00,,,0.00,Wunderground v.1.15,2013-10-05 15:09:00,
2013-10-05 10:15:00,70.2,63.7,29.43,South,184,5.0,11.0,80,0.00,,,0.00,Wunderground v.1.15,2013-10-05 15:15:00,
2013-10-05 10:20:00,69.9,63.8,29.43,SSW,194,2.0,3.0,81,0.00,,,0.00,Wunderground v.1.15,2013-10-05 15:20:00,
2013-10-05 10:25:00,69.6,63.9,29.43,South,189,1.0,6.0,82,0.00,,,0.00,Wunderground v.1.15,2013-10-05 15:25:00,
2013-10-05 10:30:00,69.3,64.3,29.43,WSW,241,2.0,4.0,84,0.00,,,0.00,Wunderground v.1.15,2013-10-05 15:30:00,
2013-10-05 10:35:00,69.9,64.5,29.43,SSW,197,3.0,18.0,83,0.00,,,0.00,Wunderground v.1.15,2013-10-05 15:35:00,
2013-10-05 10:41:00,68.4,63.4,29.43,SSW,206,5.0,6.0,84,0.00,,,0.01,Wunderground v.1.15,2013-10-05 15:41:00,
2013-10-05 10:46:00,67.9,63.2,29.43,SSW,195,3.0,6.0,85,0.00,,,0.01,Wunderground v.1.15,2013-10-05 15:46:00,
2013-10-05 10:51:00,67.5,63.2,29.43,SSW,205,2.0,7.0,86,0.00,,,0.01,Wunderground v.1.15,2013-10-05 15:51:00,
2013-10-05 10:56:00,67.1,63.1,29.43,South,178,2.0,7.0,87,0.00,,,0.01,Wunderground v.1.15,2013-10-05 15:56:00,
2013-10-05 11:02:00,66.7,63.0,29.42,South,184,1.0,2.0,88,0.00,,,0.01,Wunderground v.1.15,2013-10-05 16:02:00,
2013-10-05 11:07:00,66.5,62.8,29.41,South,185,0.0,2.0,88,0.00,,,0.01,Wunderground v.1.15,2013-10-05 16:07:00,
2013-10-05 11:13:00,66.4,63.1,29.42,SSW,192,0.0,3.0,89,0.00,,,0.01,Wunderground v.1.15,2013-10-05 16:13:00,
2013-10-05 11:18:00,66.3,63.0,29.41,SSW,196,1.0,1.0,89,0.00,,,0.01,Wunderground v.1.15,2013-10-05 16:18:00,
2013-10-05 11:23:00,66.1,62.8,29.41,SSW,201,1.0,1.0,89,0.00,,,0.02,Wunderground v.1.15,2013-10-05 16:23:00,
2013-10-05 11:28:00,66.1,63.1,29.41,SSW,196,0.0,0.0,90,0.00,,,0.02,Wunderground v.1.15,2013-10-05 16:28:00,
2013-10-05 11:34:00,66.1,63.1,29.41,SSW,205,0.0,0.0,90,0.00,,,0.02,Wunderground v.1.15,2013-10-05 16:34:00,
2013-10-05 11:39:00,66.1,63.4,29.40,SSW,205,0.0,0.0,91,0.00,,,0.02,Wunderground v.1.15,2013-10-05 16:39:00,
2013-10-05 11:44:00,66.1,63.4,29.40,WSW,254,0.0,0.0,91,0.00,,,0.02,Wunderground v.1.15,2013-10-05 16:44:00,
2013-10-05 11:50:00,66.3,63.6,29.41,WSW,248,0.0,0.0,91,0.00,,,0.02,Wunderground v.1.15,2013-10-05 16:50:00,
2013-10-05 11:55:00,66.6,-99.9,29.41,West,275,0.0,2.0,255,0.00,,,0.02,Wunderground v.1.15,2013-10-05 16:55:00,
2013-10-05 12:01:00,66.1,63.1,29.41,West,275,0.0,0.0,90,0.00,,,0.02,Wunderground v.1.15,2013-10-05 17:01:00,
2013-10-05 12:06:00,66.6,-99.9,29.41,WSW,255,0.0,2.0,255,0.00,,,0.02,Wunderground v.1.15,2013-10-05 17:06:00,
2013-10-05 12:12:00,66.0,63.0,29.41,SW,223,1.0,5.0,90,0.00,,,0.02,Wunderground v.1.15,2013-10-05 17:12:00,
2013-10-05 12:18:00,66.2,-99.9,29.43,SW,228,1.0,1.0,255,0.00,,,0.02,Wunderground v.1.15,2013-10-05 17:18:00,
2013-10-05 12:23:00,64.9,61.6,29.42,WSW,248,2.0,13.0,89,0.00,,,0.03,Wunderground v.1.15,2013-10-05 17:23:00,
2013-10-05 12:29:00,64.3,61.0,29.42,SW,223,4.0,7.0,89,0.00,,,0.03,Wunderground v.1.15,2013-10-05 17:29:00,
2013-10-05 12:34:00,64.2,60.9,29.42,SW,232,2.0,7.0,89,0.00,,,0.03,Wunderground v.1.15,2013-10-05 17:34:00,
2013-10-05 12:39:00,63.9,60.9,29.42,SSW,203,1.0,1.0,90,0.00,,,0.03,Wunderground v.1.15,2013-10-05 17:39:00,
2013-10-05 12:44:00,64.2,61.2,29.42,WSW,243,1.0,4.0,90,0.00,,,0.03,Wunderground v.1.15,2013-10-05 17:44:00,
2013-10-05 12:49:00,63.7,60.7,29.41,WSW,252,1.0,1.0,90,0.00,,,0.03,Wunderground v.1.15,2013-10-05 17:49:00,
2013-10-05 12:55:00,63.5,60.5,29.41,SW,229,2.0,5.0,90,0.00,,,0.03,Wunderground v.1.15,2013-10-05 17:55:00,
2013-10-05 13:00:00,63.2,60.2,29.41,WSW,248,2.0,6.0,90,0.00,,,0.04,Wunderground v.1.15,2013-10-05 18:00:00,
2013-10-05 13:05:00,63.1,60.1,29.41,WSW,252,1.0,6.0,90,0.00,,,0.04,Wunderground v.1.15,2013-10-05 18:05:00,
2013-10-05 13:11:00,62.9,59.6,29.41,SSW,213,2.0,4.0,89,0.00,,,0.04,Wunderground v.1.15,2013-10-05 18:11:00,
2013-10-05 13:16:00,62.9,59.3,29.41,SW,217,2.0,4.0,88,0.00,,,0.04,Wunderground v.1.15,2013-10-05 18:16:00,
2013-10-05 13:21:00,62.7,58.8,29.41,SW,227,2.0,12.0,87,0.00,,,0.04,Wunderground v.1.15,2013-10-05 18:21:00,
2013-10-05 13:26:00,62.4,58.5,29.41,WSW,238,3.0,12.0,87,0.00,,,0.04,Wunderground v.1.15,2013-10-05 18:26:00,
2013-10-05 13:32:00,62.2,58.3,29.40,West,270,1.0,6.0,87,0.00,,,0.05,Wunderground v.1.15,2013-10-05 18:32:00,
2013-10-05 13:38:00,62.0,58.4,29.39,SW,234,1.0,6.0,88,0.00,,,0.05,Wunderground v.1.15,2013-10-05 18:38:00,
2013-10-05 13:43:00,62.0,58.1,29.39,WNW,282,0.0,2.0,87,0.00,,,0.05,Wunderground v.1.15,2013-10-05 18:43:00,
2013-10-05 13:48:00,62.0,58.1,29.39,West,265,1.0,2.0,87,0.00,,,0.05,Wunderground v.1.15,2013-10-05 18:48:00,
2013-10-05 13:53:00,61.9,57.7,29.38,WNW,286,1.0,8.0,86,0.00,,,0.05,Wunderground v.1.15,2013-10-05 18:53:00,
2013-10-05 13:59:00,61.7,57.5,29.39,West,259,1.0,1.0,86,0.00,,,0.05,Wunderground v.1.15,2013-10-05 18:59:00,
2013-10-05 14:05:00,61.5,56.9,29.39,NNW,344,1.0,5.0,85,0.00,,,0.05,Wunderground v.1.15,2013-10-05 19:05:00,
2013-10-05 14:10:00,61.2,56.7,29.39,SSW,206,2.0,2.0,85,0.00,,,0.05,Wunderground v.1.15,2013-10-05 19:10:00,
2013-10-05 14:16:00,61.0,56.8,29.40,SW,217,1.0,2.0,86,0.00,,,0.05,Wunderground v.1.15,2013-10-05 19:16:00,
2013-10-05 14:21:00,60.9,56.4,29.40,SW,223,1.0,3.0,85,0.00,,,0.05,Wunderground v.1.15,2013-10-05 19:21:00,
2013-10-05 14:27:00,60.6,55.7,29.38,South,178,1.0,3.0,84,0.00,,,0.05,Wunderground v.1.15,2013-10-05 19:27:00,
2013-10-05 14:33:00,60.5,56.0,29.38,SW,222,0.0,1.0,85,0.00,,,0.05,Wunderground v.1.15,2013-10-05 19:33:00,
2013-10-05 14:39:00,60.6,56.1,29.37,SSW,200,0.0,0.0,85,0.00,,,0.05,Wunderground v.1.15,2013-10-05 19:39:00,
2013-10-05 14:44:00,60.6,56.4,29.37,South,178,0.0,6.0,86,0.00,,,0.06,Wunderground v.1.15,2013-10-05 19:44:00,
2013-10-05 14:49:00,60.4,55.9,29.36,SSW,208,0.0,0.0,85,0.00,,,0.06,Wunderground v.1.15,2013-10-05 19:49:00,
2013-10-05 14:55:00,59.9,56.0,29.38,SW,227,0.0,0.0,87,0.00,,,0.06,Wunderground v.1.15,2013-10-05 19:55:00,
2013-10-05 15:00:00,59.6,56.0,29.38,West,266,0.0,0.0,88,0.04,,,0.07,Wunderground v.1.15,2013-10-05 20:00:00,
2013-10-05 15:05:00,59.4,55.8,29.39,WSW,256,1.0,3.0,88,0.04,,,0.07,Wunderground v.1.15,2013-10-05 20:05:00,
2013-10-05 15:11:00,58.6,55.1,29.37,West,261,1.0,1.0,88,0.05,,,0.08,Wunderground v.1.15,2013-10-05 20:11:00,
2013-10-05 15:16:00,57.9,54.4,29.38,WSW,238,1.0,7.0,88,0.05,,,0.08,Wunderground v.1.15,2013-10-05 20:16:00,
2013-10-05 15:21:00,57.4,54.2,29.37,WSW,246,1.0,1.0,89,0.05,,,0.08,Wunderground v.1.15,2013-10-05 20:21:00,
2013-10-05 15:27:00,57.2,53.4,29.37,SW,218,0.0,1.0,87,0.04,,,0.09,Wunderground v.1.15,2013-10-05 20:27:00,
2013-10-05 15:32:00,56.9,54.0,29.36,SW,225,0.0,0.0,90,0.04,,,0.09,Wunderground v.1.15,2013-10-05 20:32:00,
2013-10-05 15:37:00,56.7,54.1,29.36,SW,224,0.0,0.0,91,0.06,,,0.10,Wunderground v.1.15,2013-10-05 20:37:00,
2013-10-05 15:42:00,56.4,53.5,29.38,SSW,213,0.0,4.0,90,0.06,,,0.10,Wunderground v.1.15,2013-10-05 20:42:00,
2013-10-05 15:48:00,56.1,53.2,29.37,SSW,208,1.0,4.0,90,0.04,,,0.10,Wunderground v.1.15,2013-10-05 20:48:00,
2013-10-05 15:53:00,56.0,53.4,29.38,SW,233,1.0,1.0,91,0.04,,,0.11,Wunderground v.1.15,2013-10-05 20:53:00,
2013-10-05 15:58:00,56.0,53.4,29.37,WSW,245,0.0,2.0,91,0.04,,,0.11,Wunderground v.1.15,2013-10-05 20:58:00,
2013-10-05 16:04:00,56.1,53.5,29.37,SW,229,0.0,4.0,91,0.06,,,0.12,Wunderground v.1.15,2013-10-05 21:04:00,
2013-10-05 16:09:00,55.7,52.5,29.38,WSW,237,1.0,1.0,89,0.06,,,0.12,Wunderground v.1.15,2013-10-05 21:09:00,
2013-10-05 16:14:00,55.7,-99.9,29.38,SSW,192,2.0,5.0,255,0.04,,,0.12,Wunderground v.1.15,2013-10-05 21:14:00,
2013-10-05 16:20:00,55.3,52.1,29.38,SSW,194,2.0,2.0,89,0.04,,,0.13,Wunderground v.1.15,2013-10-05 21:20:00,
2013-10-05 16:25:00,55.2,52.0,29.38,SW,234,1.0,2.0,89,0.04,,,0.13,Wunderground v.1.15,2013-10-05 21:25:00,
2013-10-05 16:30:00,55.1,51.9,29.38,SW,236,0.0,0.0,89,0.04,,,0.13,Wunderground v.1.15,2013-10-05 21:30:00,
2013-10-05 16:36:00,55.0,51.8,29.37,SSW,205,0.0,2.0,89,0.04,,,0.14,Wunderground v.1.15,2013-10-05 21:36:00,
2013-10-05 16:41:00,55.0,51.8,29.37,South,183,1.0,1.0,89,0.04,,,0.14,Wunderground v.1.15,2013-10-05 21:41:00,
2013-10-05 16:46:00,55.0,51.8,29.37,SSW,193,0.0,1.0,89,0.04,,,0.14,Wunderground v.1.15,2013-10-05 21:46:00,
2013-10-05 16:52:00,55.1,51.9,29.37,SW,228,0.0,2.0,89,0.00,,,0.14,Wunderground v.1.15,2013-10-05 21:52:00,
2013-10-05 16:57:00,55.1,51.6,29.37,SW,228,0.0,2.0,88,0.00,,,0.14,Wunderground v.1.15,2013-10-05 21:57:00,
2013-10-05 17:02:00,55.2,52.0,29.37,SW,228,0.0,0.0,89,0.00,,,0.14,Wunderground v.1.15,2013-10-05 22:02:00,
2013-10-05 17:08:00,55.3,52.1,29.37,SW,227,0.0,0.0,89,0.00,,,0.14,Wunderground v.1.15,2013-10-05 22:08:00,
2013-10-05 17:13:00,55.1,51.6,29.37,WSW,257,1.0,5.0,88,0.00,,,0.14,Wunderground v.1.15,2013-10-05 22:13:00,
2013-10-05 17:18:00,-90.0,-91.9,29.36,WNW,288,1.0,5.0,86,0.00,,,0.14,Wunderground v.1.15,2013-10-05 22:18:00,
2013-10-05 17:24:00,54.8,51.0,29.37,WSW,256,0.0,1.0,87,0.00,,,0.14,Wunderground v.1.15,2013-10-05 22:24:00,
2013-10-05 17:29:00,54.6,50.5,29.37,South,180,0.0,0.0,86,0.00,,,0.14,Wunderground v.1.15,2013-10-05 22:29:00,
2013-10-05 17:34:00,54.5,50.4,29.38,South,187,0.0,3.0,86,0.00,,,0.14,Wunderground v.1.15,2013-10-05 22:34:00,
2013-10-05 17:39:00,54.4,50.3,29.39,SSE,148,0.0,0.0,86,0.00,,,0.14,Wunderground v.1.15,2013-10-05 22:39:00,
2013-10-05 17:45:00,54.5,50.4,29.39,South,190,1.0,5.0,86,0.00,,,0.14,Wunderground v.1.15,2013-10-05 22:45:00,
2013-10-05 17:50:00,54.4,50.3,29.39,South,175,1.0,1.0,86,0.00,,,0.14,Wunderground v.1.15,2013-10-05 22:50:00,
2013-10-05 17:55:00,54.3,50.2,29.40,South,182,1.0,1.0,86,0.00,,,0.14,Wunderground v.1.15,2013-10-05 22:55:00,
2013-10-05 18:01:00,54.2,50.1,29.38,SSE,165,1.0,5.0,86,0.00,,,0.14,Wunderground v.1.15,2013-10-05 23:01:00,
2013-10-05 18:06:00,54.2,50.1,29.39,South,183,2.0,8.0,86,0.00,,,0.14,Wunderground v.1.15,2013-10-05 23:06:00,
2013-10-05 18:11:00,54.1,50.3,29.39,South,171,1.0,1.0,87,0.00,,,0.14,Wunderground v.1.15,2013-10-05 23:11:00,
2013-10-05 18:17:00,54.1,50.3,29.39,South,184,1.0,6.0,87,0.00,,,0.14,Wunderground v.1.15,2013-10-05 23:17:00,
2013-10-05 18:22:00,54.0,50.2,29.39,South,181,2.0,4.0,87,0.00,,,0.14,Wunderground v.1.15,2013-10-05 23:22:00,
2013-10-05 18:27:00,53.9,50.1,29.39,South,183,1.0,4.0,87,0.00,,,0.14,Wunderground v.1.15,2013-10-05 23:27:00,
2013-10-05 18:32:00,54.0,50.5,29.39,SSE,165,0.0,2.0,88,0.00,,,0.14,Wunderground v.1.15,2013-10-05 23:32:00,
2013-10-05 18:38:00,54.0,50.2,29.39,South,172,1.0,2.0,87,0.00,,,0.14,Wunderground v.1.15,2013-10-05 23:38:00,
2013-10-05 18:44:00,54.0,50.2,29.39,South,174,1.0,1.0,87,0.00,,,0.14,Wunderground v.1.15,2013-10-05 23:44:00,
2013-10-05 18:50:00,54.1,50.3,29.39,South,172,1.0,2.0,87,0.00,,,0.14,Wunderground v.1.15,2013-10-05 23:50:00,
2013-10-05 18:56:00,54.0,50.5,29.39,South,174,2.0,7.0,88,0.00,,,0.14,Wunderground v.1.15,2013-10-05 23:56:00,
2013-10-05 19:01:00,54.0,50.2,29.39,SSE,158,1.0,4.0,87,0.00,,,0.14,Wunderground v.1.15,2013-10-06 00:01:00,
2013-10-05 19:08:00,53.9,50.4,29.39,South,173,3.0,6.0,88,0.00,,,0.14,Wunderground v.1.15,2013-10-06 00:08:00,
2013-10-05 19:14:00,-90.0,-99.9,29.40,SSE,165,3.0,5.0,255,0.00,,,0.14,Wunderground v.1.15,2013-10-06 00:14:00,
2013-10-05 19:19:00,53.9,50.4,29.40,SSE,162,2.0,2.0,88,0.00,,,0.14,Wunderground v.1.15,2013-10-06 00:19:00,
2013-10-05 19:25:00,53.8,50.3,29.40,SSE,150,2.0,8.0,88,0.00,,,0.14,Wunderground v.1.15,2013-10-06 00:25:00,
2013-10-05 19:30:00,53.7,50.2,29.40,South,170,1.0,1.0,88,0.00,,,0.14,Wunderground v.1.15,2013-10-06 00:30:00,
2013-10-05 19:36:00,53.7,50.2,29.40,SSE,163,2.0,5.0,88,0.00,,,0.14,Wunderground v.1.15,2013-10-06 00:36:00,
2013-10-05 19:42:00,53.8,50.6,29.40,SSW,196,3.0,5.0,89,0.00,,,0.14,Wunderground v.1.15,2013-10-06 00:42:00,
2013-10-05 19:47:00,53.7,50.5,29.40,SSE,162,2.0,9.0,89,0.00,,,0.14,Wunderground v.1.15,2013-10-06 00:47:00,
2013-10-05 19:53:00,53.7,50.5,29.40,SSE,161,1.0,2.0,89,0.00,,,0.14,Wunderground v.1.15,2013-10-06 00:53:00,
2013-10-05 19:58:00,53.8,50.6,29.40,SSE,163,2.0,9.0,89,0.00,,,0.14,Wunderground v.1.15,2013-10-06 00:58:00,
2013-10-05 20:03:00,53.8,50.6,29.40,SSE,165,2.0,5.0,89,0.00,,,0.14,Wunderground v.1.15,2013-10-06 01:03:00,
2013-10-05 20:09:00,53.8,50.6,29.40,SSE,151,1.0,4.0,89,0.00,,,0.14,Wunderground v.1.15,2013-10-06 01:09:00,
2013-10-05 20:14:00,53.7,50.5,29.41,South,182,2.0,4.0,89,0.00,,,0.14,Wunderground v.1.15,2013-10-06 01:14:00,
2013-10-05 20:19:00,53.8,50.6,29.40,South,175,1.0,8.0,89,0.00,,,0.14,Wunderground v.1.15,2013-10-06 01:19:00,
2013-10-05 20:25:00,53.8,50.6,29.40,South,173,1.0,8.0,89,0.00,,,0.14,Wunderground v.1.15,2013-10-06 01:25:00,
2013-10-05 20:30:00,53.7,50.2,29.40,SW,216,1.0,1.0,88,0.00,,,0.14,Wunderground v.1.15,2013-10-06 01:30:00,
2013-10-05 20:35:00,53.6,50.1,29.40,SSW,201,1.0,5.0,88,0.00,,,0.14,Wunderground v.1.15,2013-10-06 01:35:00,
2013-10-05 20:40:00,53.4,49.9,29.40,SSE,161,1.0,4.0,88,0.00,,,0.14,Wunderground v.1.15,2013-10-06 01:40:00,
2013-10-05 20:46:00,53.4,49.9,29.40,South,175,2.0,4.0,88,0.00,,,0.14,Wunderground v.1.15,2013-10-06 01:46:00,
2013-10-05 20:51:00,-90.0,-99.9,29.40,SW,214,2.0,2.0,255,0.00,,,0.14,Wunderground v.1.15,2013-10-06 01:51:00,
2013-10-05 20:57:00,53.3,49.5,29.40,SSW,194,2.0,3.0,87,0.00,,,0.14,Wunderground v.1.15,2013-10-06 01:57:00,
2013-10-05 21:02:00,53.2,49.7,29.40,South,186,2.0,3.0,88,0.00,,,0.14,Wunderground v.1.15,2013-10-06 02:02:00,
2013-10-05 21:07:00,53.1,49.6,29.40,South,180,1.0,5.0,88,0.00,,,0.14,Wunderground v.1.15,2013-10-06 02:07:00,
2013-10-05 21:13:00,52.9,49.4,29.40,SSW,200,1.0,4.0,88,0.00,,,0.14,Wunderground v.1.15,2013-10-06 02:13:00,
2013-10-05 21:18:00,-90.0,-91.6,29.39,SSW,198,1.0,4.0,88,0.00,,,0.14,Wunderground v.1.15,2013-10-06 02:18:00,
2013-10-05 21:23:00,52.6,49.4,29.39,SSW,208,1.0,6.0,89,0.00,,,0.14,Wunderground v.1.15,2013-10-06 02:23:00,
2013-10-05 21:29:00,52.8,49.3,29.39,South,190,2.0,2.0,88,0.00,,,0.14,Wunderground v.1.15,2013-10-06 02:29:00,
2013-10-05 21:34:00,52.4,49.3,29.39,SSW,212,2.0,4.0,89,0.00,,,0.14,Wunderground v.1.15,2013-10-06 02:34:00,
2013-10-05 21:39:00,52.4,48.9,29.39,SW,221,1.0,1.0,88,0.00,,,0.14,Wunderground v.1.15,2013-10-06 02:39:00,
2013-10-05 21:44:00,52.3,-99.9,29.40,SW,232,1.0,1.0,255,0.00,,,0.14,Wunderground v.1.15,2013-10-06 02:44:00,
2013-10-05 21:50:00,52.2,49.4,29.40,South,184,1.0,1.0,90,0.00,,,0.14,Wunderground v.1.15,2013-10-06 02:50:00,
2013-10-05 21:55:00,52.4,49.6,29.40,SSW,204,1.0,2.0,90,0.00,,,0.14,Wunderground v.1.15,2013-10-06 02:55:00,
2013-10-05 22:01:00,52.2,49.4,29.40,SSW,192,1.0,6.0,90,0.00,,,0.14,Wunderground v.1.15,2013-10-06 03:01:00,
2013-10-05 22:06:00,52.1,49.3,29.40,SSW,211,2.0,6.0,90,0.00,,,0.14,Wunderground v.1.15,2013-10-06 03:06:00,
2013-10-05 22:11:00,52.3,-99.9,29.41,SW,229,2.0,5.0,255,0.00,,,0.14,Wunderground v.1.15,2013-10-06 03:11:00,
2013-10-05 22:16:00,52.1,49.3,29.40,WSW,242,2.0,5.0,90,0.00,,,0.14,Wunderground v.1.15,2013-10-06 03:16:00,
2013-10-05 22:22:00,52.3,49.5,29.41,SSW,202,2.0,4.0,90,0.00,,,0.14,Wunderground v.1.15,2013-10-06 03:22:00,
2013-10-05 22:27:00,52.2,49.4,29.40,South,187,1.0,7.0,90,0.00,,,0.14,Wunderground v.1.15,2013-10-06 03:27:00,
2013-10-05 22:32:00,52.1,49.3,29.40,SSW,201,2.0,6.0,90,0.00,,,0.14,Wunderground v.1.15,2013-10-06 03:32:00,
2013-10-05 22:38:00,52.2,49.4,29.40,SW,215,2.0,7.0,90,0.00,,,0.14,Wunderground v.1.15,2013-10-06 03:38:00,
2013-10-05 22:43:00,52.2,49.4,29.40,SSW,195,1.0,1.0,90,0.00,,,0.14,Wunderground v.1.15,2013-10-06 03:43:00,
2013-10-05 22:48:00,52.1,49.3,29.40,SSW,201,0.0,1.0,90,0.00,,,0.14,Wunderground v.1.15,2013-10-06 03:48:00,
2013-10-05 22:54:00,51.9,49.1,29.40,SSW,206,0.0,3.0,90,0.00,,,0.14,Wunderground v.1.15,2013-10-06 03:54:00,
2013-10-05 22:59:00,51.9,49.1,29.40,SSW,209,0.0,0.0,90,0.00,,,0.14,Wunderground v.1.15,2013-10-06 03:59:00,
2013-10-05 23:01:00,51.9,49.1,29.40,SSW,202,1.0,2.0,90,0.00,,,0.14,Wunderground v.1.15,2013-10-06 04:01:00,
2013-10-05 23:02:00,51.9,49.1,29.40,SSW,205,1.0,2.0,90,0.00,,,0.14,Wunderground v.1.15,2013-10-06 04:02:00,
2013-10-05 23:03:00,51.8,49.0,29.40,SSW,207,1.0,2.0,90,0.00,,,0.14,Wunderground v.1.15,2013-10-06 04:03:00,
2013-10-05 23:04:00,52.1,48.7,29.40,SSW,199,1.0,4.0,88,0.00,,,0.14,Wunderground v.1.15,2013-10-06 04:04:00,
2013-10-05 23:09:00,51.8,48.7,29.40,SW,235,1.0,1.0,89,0.00,,,0.14,Wunderground v.1.15,2013-10-06 04:09:00,
2013-10-05 23:11:00,51.7,48.9,29.40,SW,232,1.0,1.0,90,0.00,,,0.14,Wunderground v.1.15,2013-10-06 04:11:00,
2013-10-05 23:17:00,51.5,48.7,29.40,SW,226,0.0,1.0,90,0.00,,,0.14,Wunderground v.1.15,2013-10-06 04:17:00,
2013-10-05 23:22:00,51.3,48.5,29.39,SW,217,0.0,0.0,90,0.00,,,0.14,Wunderground v.1.15,2013-10-06 04:22:00,
2013-10-05 23:28:00,51.2,48.7,29.40,SSW,202,0.0,0.0,91,0.00,,,0.14,Wunderground v.1.15,2013-10-06 04:28:00,
2013-10-05 23:33:00,51.2,48.7,29.39,SSW,202,0.0,0.0,91,0.00,,,0.14,Wunderground v.1.15,2013-10-06 04:33:00,
2013-10-05 23:38:00,51.2,48.1,29.38,SSW,200,0.0,0.0,89,0.00,,,0.14,Wunderground v.1.15,2013-10-06 04:38:00,
2013-10-05 23:44:00,50.8,48.3,29.39,SSW,201,0.0,0.0,91,0.00,,,0.14,Wunderground v.1.15,2013-10-06 04:44:00,
2013-10-05 23:49:00,50.8,48.3,29.38,SSW,193,0.0,2.0,91,0.00,,,0.14,Wunderground v.1.15,2013-10-06 04:49:00,
2013-10-05 23:54:00,50.6,48.1,29.38,SSW,192,0.0,2.0,91,0.00,,,0.14,Wunderground v.1.15,2013-10-06 04:54:00,